[[{"header":{"parameterUnit":"m.s-1","parameterCategory":1,"la1":30.2991,"la2":30.254,"lo1":-89.0895,"lo2":-89.0444,"dy":0.0017,"dx":0.0017,"nx":28,"ny":28,"refTime":"2024-08-09T15:00:00:Z","depth":0,"parameterNumber":2,"parameterNumberName":"U-component_of_WINDS"},"data":[0,0,0,0,0,0,0,0,0,0,0,0,0,0,0,0,0,0,0,0,0,0,0,0,0,0,0,0,0,0,0,0,0,0,0,0,0,0,0,0,0,0,0,0,0,0,0,0,0,0,0,0,0,0,0,0,0,0,2.157,2.1572,0,2.1763,2.1765,2.1767,2.1744,2.1741,2.1738,2.1735,2.1942,2.195,2.1959,0,0,0,0,0,0,0,0,0,0,0,0,0,2.1192,2.1199,2.157,2.1572,2.1574,2.1763,2.1765,2.1768,2.1744,2.1741,2.1737,2.1733,2.1939,2.1949,2.196,0,0,0,0,0,0,0,0,0,0,0,0,0,2.1368,2.1201,2.1569,2.1585,2.1589,2.1762,2.1765,2.1769,2.1745,2.1741,2.1736,2.1731,2.1936,2.1948,2.1961,2.2134,0,0,2.2,2.2005,0,0,0,0,0,0,0,0,2.1358,2.1382,2.1581,2.1584,2.1588,2.1724,2.1708,2.1891,2.1746,2.1686,2.1735,2.1729,2.1874,2.1892,2.1939,2.2144,2.2152,2.2001,2.2009,2.2014,2.2018,0,0,0,0,0,0,0,2.1346,2.1373,2.1646,2.1583,2.1588,2.1587,2.1606,2.1743,2.1805,2.1691,2.169,2.1712,2.1876,2.1926,2.1943,2.2155,2.2001,2.2012,2.202,2.2025,2.2518,2.2523,0,0,0,0,0,0,2.1328,2.1363,2.164,2.1652,2.1459,2.1597,2.1619,2.1686,2.1803,2.1816,2.1716,2.1711,2.1907,2.1928,2.1951,2.2164,2.2014,2.2026,2.2033,2.2512,2.2519,2.2525,0,0,0,0,0,0,2.132,2.1353,2.1632,2.1508,2.1543,2.1609,2.1683,2.1692,2.1743,2.1822,2.1834,2.1756,2.1904,2.1933,2.2089,2.2171,2.2032,2.2043,2.2506,2.2514,2.2522,2.2591,0,0,0,0,0,0,2.1309,2.135,2.1413,2.1509,2.155,2.1764,2.1688,2.1699,2.1763,2.1758,2.1863,2.1875,2.1903,2.207,2.2102,2.2186,2.2053,2.2499,2.2509,2.2519,2.2582,2.26,2.2616,0,0,0,0,0,2.1296,2.1426,2.1417,2.145,2.163,2.1769,2.1793,2.1818,2.177,2.1837,2.1888,2.1872,2.2156,2.2086,2.2121,2.2211,2.2494,2.2506,2.2518,2.2574,2.2597,2.2616,0,0,0,0,0,0,2.1341,2.1439,2.143,2.1594,2.1673,2.1765,2.1849,2.1841,2.1938,2.1929,2.196,2.1984,2.2143,2.2192,2.2113,2.2387,2.2319,2.2339,2.2349,2.2372,2.2389,2.2375,2.2064,0,0,0,0,0,2.137,2.1471,2.1553,2.169,2.173,2.1783,2.1845,2.1858,2.1942,2.1976,2.2039,2.2125,2.2234,2.2305,2.2409,2.2588,2.2613,2.2667,2.2685,2.2698,2.2717,2.282,2.2846,2.2565,2.2565,2.2565,0,0,2.1432,2.1497,2.156,2.1701,2.1764,2.1873,2.1811,2.1928,2.201,2.1995,2.2147,2.2196,2.2294,2.2463,2.2541,2.2509,2.2799,2.2714,2.2725,2.2736,2.2835,2.2861,2.2885,2.2574,2.2572,2.2571,0,0,2.16,2.1657,2.178,2.1845,2.194,2.1974,2.2004,2.2097,2.2129,2.2281,2.2273,2.2373,2.2558,2.263,2.269,2.2888,2.2879,2.2922,2.3014,2.3114,2.3136,2.3156,2.3231,2.3257,2.2939,2.2939,2.2939,0,2.1665,2.1824,2.1845,2.1964,2.2029,2.2017,2.2145,2.2207,2.2333,2.238,2.2341,2.2576,2.2641,2.2829,2.2878,2.2926,2.2964,2.2911,2.313,2.3151,2.317,2.3242,2.3269,2.2944,2.2943,2.2943,2.2942,0,2.1903,2.2014,2.2102,2.2222,2.2296,2.2419,2.2462,2.2536,2.2543,2.2583,2.2741,2.2818,2.294,2.2985,2.2993,2.3176,2.3154,2.3123,2.3056,2.3201,2.3269,2.3296,2.2951,2.2949,2.2947,2.2946,0,0,2.2105,2.2235,2.2268,2.2324,2.2429,2.2517,2.2641,2.2758,2.2822,2.291,2.3018,2.3176,2.3149,2.3218,2.3235,2.3322,2.348,2.3282,2.3285,2.3319,2.3691,2.3716,2.3747,2.3473,2.3478,2.3482,2.3684,0,2.2286,2.2502,2.2526,2.272,2.2826,2.2818,2.2927,2.3006,2.3047,2.3146,2.3193,2.3306,2.326,2.3302,2.3387,2.3442,2.3556,2.3428,2.3579,2.3584,2.3557,2.3782,2.3808,2.3994,2.371,2.3715,2.3718,0,2.2526,2.2619,2.2823,2.2917,2.2962,2.3059,2.317,2.3263,2.3354,2.3379,2.3456,2.3463,2.3596,2.3521,2.3708,2.362,2.3684,2.372,2.3728,2.3746,2.3662,2.3809,2.4054,2.4083,2.3759,2.3756,2.3753,0,2.2658,2.2834,2.2981,2.3028,2.314,2.3209,2.326,2.3345,2.3415,2.3513,2.3559,2.3672,2.3735,2.3824,2.3863,2.3804,2.4049,2.3977,2.4077,2.4077,2.4131,2.4128,2.4393,2.4167,2.4166,2.4166,2.4165,0,2.286,2.2986,2.3042,2.3132,2.3275,2.3303,2.3445,2.3493,2.357,2.3673,2.3673,2.3771,2.3814,2.392,2.3951,2.4103,2.4131,2.4158,2.4165,2.416,2.4157,2.4204,2.4193,2.4173,2.4171,2.417,2.4169,0,2.3032,2.3074,2.3233,2.3326,2.3353,2.3454,2.3536,2.3626,2.3666,2.3796,2.3829,2.3894,2.4018,2.4064,2.4217,2.4238,2.4415,2.4411,2.4384,2.4387,2.4486,2.4478,2.4793,2.4838,2.4579,2.4581,2.4583,0,2.316,2.3257,2.336,2.3427,2.348,2.3588,2.3659,2.3692,2.3767,2.3879,2.3957,2.408,2.418,2.438,2.4443,2.4561,2.4561,2.4664,2.4579,2.4572,2.4568,2.4563,2.4575,2.4681,2.4683,2.4686,2.4687,0,2.3383,2.3399,2.3499,2.3609,2.3693,2.3781,2.3867,2.3923,2.3969,2.4054,2.418,2.4257,2.4412,2.4537,2.4658,2.4714,2.4711,2.4713,2.4743,2.474,2.4722,2.4737,2.4431,2.4706,2.4704,2.4703,2.4702,2.4701,2.354,2.3627,2.3714,2.3827,2.3894,2.3975,2.4065,2.4116,2.4221,2.4348,2.4361,2.4498,2.4591,2.4752,2.4814,2.4925,2.4898,2.494,2.4952,2.4963,2.4972,2.4702,2.4947,2.4946,2.4946,2.4945,2.4945,0,2.3766,2.3822,2.3925,2.4045,2.4135,2.412,2.4215,2.4293,2.4412,2.4497,2.4596,2.4743,2.4864,2.4937,2.5059,2.5134,2.5136,2.5166,2.5162,2.5176,2.4987,2.495,2.5162,2.5162,2.5162,2.5162,2.5162,2.5162,2.3895,2.4043,2.407,2.4253,2.4309,2.4441,2.4497,2.4573,2.4641,2.4805,2.4904,2.495,2.5032,2.5161,2.5273,2.5292,2.5339,2.5371,2.5389,2.5211,2.5189,2.5168,2.5134,2.538,2.5381,2.5569,2.5571,2.5572]},{"header":{"parameterUnit":"m.s-1","parameterCategory":1,"la1":30.2991,"la2":30.254,"lo1":-89.0895,"lo2":-89.0444,"dy":0.0017,"dx":0.0017,"nx":28,"ny":28,"refTime":"2024-08-09T15:00:00:Z","depth":0,"parameterNumber":3,"parameterNumberName":"V-component_of_WINDS"},"data":[0,0,0,0,0,0,0,0,0,0,0,0,0,0,0,0,0,0,0,0,0,0,0,0,0,0,0,0,0,0,0,0,0,0,0,0,0,0,0,0,0,0,0,0,0,0,0,0,0,0,0,0,0,0,0,0,0,0,0.4778,0.478,0,0.4965,0.4967,0.4969,0.4906,0.4902,0.4898,0.4894,0.509,0.5099,0.5108,0,0,0,0,0,0,0,0,0,0,0,0,0,0.4369,0.4377,0.4778,0.478,0.4783,0.4965,0.4967,0.497,0.4907,0.4902,0.4897,0.4892,0.5087,0.5098,0.5109,0,0,0,0,0,0,0,0,0,0,0,0,0,0.455,0.4379,0.4777,0.4773,0.4774,0.4964,0.4967,0.497,0.4908,0.4902,0.4896,0.489,0.5084,0.5097,0.511,0.5317,0,0,0.5152,0.5158,0,0,0,0,0,0,0,0,0.454,0.4565,0.4771,0.4774,0.4776,0.4906,0.4895,0.5087,0.491,0.4858,0.4894,0.4887,0.5034,0.5051,0.51,0.5326,0.5334,0.5153,0.5161,0.5167,0.5171,0,0,0,0,0,0,0,0.4528,0.4557,0.4852,0.4774,0.4777,0.4762,0.4781,0.4931,0.4978,0.4862,0.4857,0.488,0.5034,0.5087,0.5104,0.5337,0.5153,0.5165,0.5173,0.5178,0.5739,0.5746,0,0,0,0,0,0,0.4513,0.4547,0.4846,0.4858,0.464,0.4775,0.4796,0.487,0.4976,0.4986,0.4885,0.4877,0.5067,0.5089,0.5111,0.5358,0.5167,0.518,0.5187,0.5733,0.5741,0.5748,0,0,0,0,0,0,0.4505,0.4541,0.4838,0.4701,0.4738,0.4788,0.4872,0.4877,0.493,0.4994,0.5003,0.4931,0.5063,0.5092,0.5265,0.5364,0.5186,0.5198,0.5725,0.5735,0.5744,0.5855,0,0,0,0,0,0,0.4493,0.4538,0.4617,0.4703,0.4746,0.4989,0.4878,0.4885,0.4953,0.4944,0.5039,0.5049,0.5061,0.5245,0.5279,0.5379,0.5209,0.5716,0.5729,0.5741,0.5843,0.5867,0.5889,0,0,0,0,0,0.4479,0.4642,0.4621,0.4657,0.4845,0.4995,0.5019,0.5028,0.4961,0.5041,0.5082,0.5046,0.5348,0.5264,0.5301,0.5407,0.571,0.5725,0.574,0.5832,0.5863,0.5888,0,0,0,0,0,0,0.4568,0.4653,0.4631,0.4827,0.4904,0.4984,0.5085,0.5061,0.516,0.5147,0.5155,0.5177,0.5354,0.5398,0.5303,0.5611,0.5519,0.5542,0.5576,0.5605,0.5628,0.5614,0.522,0,0,0,0,0,0.461,0.4724,0.4793,0.4959,0.4998,0.5035,0.5101,0.5101,0.5182,0.5215,0.5268,0.5349,0.5461,0.5536,0.5643,0.5848,0.5867,0.5939,0.5962,0.5981,0.6001,0.6111,0.6143,0.5798,0.5798,0.5798,0,0,0.4699,0.4759,0.4831,0.4978,0.5038,0.5156,0.5063,0.5193,0.5281,0.5235,0.5401,0.5443,0.5533,0.5723,0.5809,0.5765,0.61,0.6,0.6015,0.6025,0.613,0.6162,0.6191,0.5808,0.5807,0.5805,0,0,0.492,0.4978,0.5121,0.5182,0.5273,0.5296,0.533,0.5414,0.544,0.5606,0.5573,0.5678,0.5872,0.5937,0.5996,0.6239,0.6209,0.6274,0.6395,0.6502,0.6529,0.6553,0.6638,0.6669,0.6294,0.6294,0.6294,0,0.502,0.5195,0.5199,0.533,0.5395,0.5357,0.5502,0.5561,0.5684,0.5729,0.5677,0.5919,0.5977,0.618,0.6239,0.6288,0.6327,0.6264,0.6524,0.6548,0.6571,0.6653,0.6685,0.6301,0.6301,0.63,0.6299,0,0.5312,0.5434,0.554,0.5655,0.5732,0.587,0.5895,0.5973,0.5965,0.5993,0.6162,0.623,0.635,0.6398,0.6393,0.66,0.6569,0.6521,0.6429,0.6611,0.6688,0.6719,0.6312,0.6309,0.6307,0.6305,0,0,0.5597,0.5711,0.5749,0.58,0.5896,0.5991,0.6127,0.6241,0.6307,0.6392,0.6505,0.6669,0.6624,0.6691,0.6693,0.6786,0.6972,0.6726,0.6728,0.6769,0.7202,0.7237,0.7274,0.6952,0.6958,0.6963,0.7194,0,0.5826,0.6062,0.6068,0.6285,0.6397,0.6361,0.6478,0.655,0.658,0.668,0.6713,0.6828,0.6761,0.68,0.6891,0.693,0.7059,0.6914,0.7058,0.7063,0.7036,0.7314,0.7352,0.7567,0.7224,0.7229,0.7233,0,0.6125,0.6216,0.6444,0.652,0.6568,0.6674,0.6778,0.6874,0.6954,0.6969,0.7041,0.7028,0.7166,0.7069,0.7259,0.7159,0.7219,0.7247,0.7255,0.7269,0.7159,0.7335,0.7636,0.7668,0.7281,0.7277,0.7273,0,0.6308,0.6488,0.6647,0.6692,0.6786,0.6861,0.6904,0.6978,0.7046,0.7137,0.7181,0.7288,0.7347,0.743,0.7446,0.7373,0.7635,0.754,0.7651,0.7651,0.7709,0.7705,0.8023,0.7748,0.7747,0.7747,0.7746,0,0.6563,0.6703,0.673,0.6828,0.6984,0.6989,0.7143,0.718,0.7246,0.735,0.7325,0.7424,0.7439,0.7541,0.7555,0.7709,0.7736,0.7752,0.7754,0.7754,0.7752,0.7793,0.7778,0.7755,0.7753,0.7752,0.775,0,0.6794,0.6818,0.6988,0.7063,0.7084,0.7196,0.7259,0.7353,0.7378,0.751,0.7542,0.7583,0.7701,0.7725,0.7866,0.7875,0.8058,0.8046,0.8031,0.8029,0.8139,0.8128,0.8495,0.8542,0.8237,0.8239,0.8242,0,0.6955,0.7062,0.7146,0.7213,0.7259,0.7368,0.7436,0.7445,0.7517,0.7614,0.7696,0.7811,0.7904,0.8095,0.8138,0.8245,0.8234,0.8355,0.825,0.8246,0.8234,0.8228,0.8238,0.8375,0.8379,0.8381,0.8383,0,0.7238,0.7243,0.7341,0.7444,0.7525,0.7606,0.7684,0.774,0.7759,0.7841,0.7961,0.8032,0.8174,0.8289,0.8395,0.844,0.8416,0.8416,0.8447,0.8448,0.8435,0.8442,0.8085,0.8408,0.8405,0.8403,0.8402,0.8401,0.7438,0.753,0.7603,0.7713,0.7771,0.7843,0.7934,0.7969,0.8069,0.8184,0.8183,0.8314,0.8389,0.8529,0.858,0.8682,0.8644,0.869,0.8701,0.8712,0.8722,0.8418,0.8702,0.8701,0.87,0.87,0.8699,0,0.7718,0.7762,0.7863,0.797,0.8057,0.8023,0.8106,0.8181,0.8295,0.8367,0.8457,0.8594,0.8704,0.8754,0.8863,0.8935,0.8926,0.8963,0.8958,0.8968,0.875,0.8712,0.8968,0.8968,0.8968,0.8968,0.8968,0.8968,0.7874,0.8027,0.8041,0.8223,0.8266,0.8393,0.8443,0.8509,0.8565,0.8718,0.8809,0.884,0.8903,0.9015,0.9114,0.9126,0.9167,0.9209,0.9216,0.9011,0.8984,0.8958,0.8921,0.9218,0.9218,0.9425,0.9427,0.9428]}]]